Find Protostar 2

NORAD ID: 34941 Int'l Des: 2009-027 Owner: PROTO Country: BM operational
HEOCIRCULARGSOGEO

Live Position

Loading 3D Globe...

About Protostar 2

Description loading...

Upcoming Passes

Passes for default location (London). Set your location on the main map for personalized predictions.

Altitude History

Loading altitude history...

Two-Line Element Set

1 34941U 09027A 26103.96639897 -.00000341 00000-0 00000+0 0 9996
2 34941 0.0878 77.3850 0001003 211.9923 8.9530 1.00274584 61987
Epoch: Apr 13, 2026 • Age: 10 hours

Current Status

Altitude 35789.4 km
Velocity 3.07 km/s
Sub-Earth Point -0.00°S, 108.28°E
Launch Date May 16, 2009
Age 16.9 years
Type other

Technical Details

Classification Payload
Mass 3905.00 kg
Dry Mass 2000.00 kg
Total Mass 3905.00 kg
Length 4.10 m
Diameter 3.60 m
Span 26.00 m
Shape Box + 2 Pan
Manufacturer BOES
Bus Type HS-601HP
Phase Status Unknown Active Status
Owner/State PROTO/BM

Most Searched